Showing default

SKY MEXICO-1, 40664

Orbit data source: Space-Track

SKY MEXICO-1, 40664 is a Mexican payload satellite in GEO that was launched on Wed, 27 May 2015 UTC via an ARIANE 5ECA launch vehicle from the French Guiana (FRGUI). Payload-class satellites include a variety of spacecraft equipped with specific instruments for various scientific and technological missions. These include communications satellites like Starlink; space stations such as the ISS; scientific satellites like the Hubble; Earth observation satellites from companies like Planet Labs, Umbra, and HawkEye 360; GPS; miniature CubeSats for education and research; and military/defense satellites.

Loading next visibility...
Identifier
40664, 2015-026B
Orbit
GEO
Last TLE update
16 hours ago
Origin
Manufacturer
OATK SSG
Mission
Operational Commercial Communications
Bus & Motor
GEOSTAR-2, IHI BT-4
Mass
3,182 kg wet, 1,260 kg dry
Launch date (UTC)
2015-05-27 (10 years ago)
Launch vehicle
ARIANE 5ECA
Launch site
French Guiana (FRGUI)
Object type
Payload
Rocket body
Debris
Shape & HBR
Box + 2 Pan, 22.4 m
Radar Cross Section
28.221 m², Large (>1 m²)

Expand to show TLE details & history

TLE from 16 hours ago
0 SKY MEXICO-1
1 40664U 15026B   25129.21524587 -.00000228  00000-0  00000-0 0  9990
2 40664   0.0359  22.7145 0002764  48.1516 155.1370  1.00272340 36408
Epoch: 2025-05-09T05:09Z
Definitive object data (Epoch: 2025-05-09T05:09:57.243Z)
Latitude
-0.0242°
Longitude
-78.7508°
Altitude
35,796.557 km
Speed
3.074 km/s
True Right ascension
15h 04m 02s
True Declination
0° 01' 27"
Sunlit
Object was in daylight at TLE epoch
Visualization TLE readout
Latitude
0.01945°
Longitude
154.95944°
Altitude
35,775.763 km
Speed
3.075 km/s
Apparent Right ascension
06h 52m 04s
Apparent Declination
-6° 07' 15"
Sunlit
Object is in daylight
Visualization observer readout
Local Sidereal Time
04:53:24
Azimuth
142.275° SSE
Elevation
36.458°
Doppler factor
1
Orbital elements
Apogee altitude
35,799.164 km
Perigee altitude
35,775.855 km
Semi-major axis
42,165.647 km
Eccentricity
0.0002764
Inclination
0.0359°
RAAN
22.7145°
Arg. of periapsis
48.1516°
True anomaly
155.15031°
Mean anomaly
155.137°
Eccentric anomaly
155.14366°
Mean motion
0.25067 °/min
BSTAR
Unknown
Orbital period
1436.14 mins
Loading historical data...
40664 neighbors
Loading maneuver chart data...
Loading SW <> Apogee altitude chart data...
Loading historical data...
Loading historical data...
Loading historical data...
Loading historical data...
Loading historical data...
Loading historical data...
Loading historical data...
Other satellites on launch #26 in the year 2015 (2015-05-27 UTC)

SKY MEXICO-1 Visibility forecast

Observer location: undefined°, undefined°

Span
Click to sort rows by Start time (UTC) header in descending order
Start Az.
Max El. time (UTC)
Max El. Az.
Max El.
End time (UTC)
End Az.
1440 mins2025-05-09 20:42:14.202Z142.287° SSE2025-05-10 16:44:14.202Z142.322° SSE30.727°2025-05-10 20:42:14.202Z142.287° SSE
|